Hourly Weather Allerona

Today, 2 December, Wednesday

Time Temperature Precipitation Wind Pressure Humidity
00:00 +7°C° 0.2 mm 3 mps 717 mmHg 94%
01:00 +7°C° 0 mm 3 mps 717 mmHg 94%
02:00 +7°C° 0.1 mm 3 mps 716 mmHg 92%
03:00 +7°C° 0.1 mm 3 mps 716 mmHg 89%
04:00 +7°C° 0.1 mm 3 mps 716 mmHg 87%
05:00 +6°C° 0.1 mm 4 mps 716 mmHg 87%
06:00 +6°C° 0.1 mm 4 mps 716 mmHg 87%
07:00 +6°C° 0 mm 4 mps 716 mmHg 89%
08:00 +6°C° 0.1 mm 4 mps 716 mmHg 86%
09:00 +7°C° 0.1 mm 4 mps 717 mmHg 84%
10:00 +8°C° 0.1 mm 5 mps 717 mmHg 81%
11:00 +7°C° 0.5 mm 4 mps 717 mmHg 82%
12:00 +7°C° 0.5 mm 4 mps 717 mmHg 84%
13:00 +8°C° 0.5 mm 3 mps 716 mmHg 85%
14:00 +7°C° 1.2 mm 3 mps 716 mmHg 88%
15:00 +7°C° 1.2 mm 3 mps 716 mmHg 91%
16:00 +6°C° 1.2 mm 2 mps 715 mmHg 93%
17:00 +6°C° 2.2 mm 2 mps 715 mmHg 93%
18:00 +6°C° 2.2 mm 1 mps 715 mmHg 93%
19:00 +6°C° 2.2 mm 1 mps 715 mmHg 93%
20:00 +6°C° 0.1 mm 1 mps 716 mmHg 93%
21:00 +6°C° 0.1 mm 1 mps 716 mmHg 93%
22:00 +5°C° 0.1 mm 0 mps 716 mmHg 92%
23:00 +4°C° 0 mm 0 mps 716 mmHg 93%

Tomorrow, 3 December, Thursday

Time Temperature Precipitation Wind Pressure Humidity
00:00 +4°C° 0 mm 0 mps 716 mmHg 93%
01:00 +5°C° 0 mm 1 mps 716 mmHg 93%
02:00 +4°C° 0.1 mm 0 mps 716 mmHg 93%
03:00 +4°C° 0.1 mm 0 mps 716 mmHg 94%
04:00 +4°C° 0.1 mm 0 mps 716 mmHg 94%
05:00 +4°C° 0.1 mm 0 mps 716 mmHg 94%
06:00 +4°C° 0.1 mm 0 mps 716 mmHg 94%
07:00 +4°C° 0.1 mm 0 mps 716 mmHg 94%
08:00 +5°C° 0 mm 0 mps 716 mmHg 91%
09:00 +6°C° 0 mm 1 mps 717 mmHg 88%
10:00 +7°C° 0 mm 1 mps 717 mmHg 85%
11:00 +8°C° 0 mm 1 mps 717 mmHg 81%
12:00 +9°C° 0 mm 1 mps 717 mmHg 77%
13:00 +10°C° 0 mm 1 mps 717 mmHg 73%
14:00 +9°C° 0 mm 1 mps 716 mmHg 75%
15:00 +8°C° 0 mm 0 mps 716 mmHg 78%
16:00 +7°C° 0 mm 0 mps 716 mmHg 80%
17:00 +6°C° 0 mm 0 mps 715 mmHg 83%
18:00 +5°C° 0 mm 0 mps 715 mmHg 86%
19:00 +4°C° 0 mm 0 mps 715 mmHg 89%
20:00 +4°C° 0 mm 0 mps 715 mmHg 89%
21:00 +4°C° 0 mm 0 mps 715 mmHg 90%
22:00 +3°C° 0 mm 0 mps 715 mmHg 90%
23:00 +3°C° 0 mm 0 mps 714 mmHg 90%

Day after tomorrow, 4 December, Friday

Time Temperature Precipitation Wind Pressure Humidity
00:00 +3°C° 0 mm 0 mps 714 mmHg 90%
01:00 +3°C° 0 mm 0 mps 714 mmHg 91%
02:00 +3°C° 0 mm 0 mps 714 mmHg 91%
03:00 +4°C° 0 mm 1 mps 713 mmHg 91%
04:00 +4°C° 0 mm 1 mps 713 mmHg 92%
05:00 +4°C° 0 mm 1 mps 713 mmHg 92%
06:00 +4°C° 0 mm 1 mps 713 mmHg 92%
07:00 +3°C° 0 mm 2 mps 713 mmHg 92%
08:00 +4°C° 0 mm 2 mps 713 mmHg 90%
09:00 +5°C° 0 mm 2 mps 713 mmHg 88%
10:00 +5°C° 0 mm 3 mps 713 mmHg 86%
11:00 +6°C° 0.1 mm 4 mps 712 mmHg 85%
12:00 +7°C° 0.1 mm 4 mps 712 mmHg 85%
13:00 +8°C° 0.1 mm 5 mps 712 mmHg 85%
14:00 +8°C° 0.1 mm 5 mps 711 mmHg 85%
15:00 +8°C° 0.1 mm 5 mps 711 mmHg 86%
16:00 +8°C° 0.1 mm 5 mps 711 mmHg 86%
17:00 +8°C° 0.1 mm 5 mps 711 mmHg 87%
18:00 +7°C° 0.1 mm 5 mps 711 mmHg 87%
19:00 +7°C° 0.1 mm 5 mps 711 mmHg 88%
20:00 +7°C° 0.1 mm 5 mps 711 mmHg 88%
21:00 +7°C° 0.1 mm 5 mps 710 mmHg 88%
22:00 +7°C° 0.1 mm 5 mps 710 mmHg 88%
23:00 +7°C° 0.1 mm 5 mps 710 mmHg 88%

5 December, Saturday

Time Temperature Precipitation Wind Pressure Humidity
00:00 +7°C° 0.1 mm 5 mps 710 mmHg 88%
01:00 +7°C° 0.1 mm 5 mps 710 mmHg 87%
02:00 +7°C° 0.1 mm 5 mps 709 mmHg 87%
03:00 +8°C° 0.1 mm 5 mps 709 mmHg 87%
04:00 +8°C° 0.1 mm 6 mps 709 mmHg 87%
05:00 +8°C° 0.4 mm 5 mps 708 mmHg 87%
06:00 +8°C° 0.4 mm 5 mps 708 mmHg 88%
07:00 +8°C° 0.4 mm 5 mps 708 mmHg 89%
08:00 +8°C° 1 mm 5 mps 708 mmHg 89%
09:00 +9°C° 1 mm 6 mps 708 mmHg 89%
10:00 +9°C° 1 mm 6 mps 708 mmHg 88%
11:00 +9°C° 1.8 mm 6 mps 708 mmHg 89%
12:00 +9°C° 1.8 mm 6 mps 708 mmHg 89%
13:00 +9°C° 1.8 mm 6 mps 708 mmHg 89%
14:00 +10°C° 2.4 mm 4 mps 708 mmHg 90%
15:00 +9°C° 2.4 mm 3 mps 708 mmHg 92%
16:00 +8°C° 2.4 mm 2 mps 708 mmHg 93%
17:00 +8°C° 1.9 mm 2 mps 708 mmHg 94%
18:00 +8°C° 1.9 mm 2 mps 708 mmHg 95%
19:00 +8°C° 1.9 mm 2 mps 708 mmHg 96%
20:00 +8°C° 0.7 mm 2 mps 708 mmHg 95%
21:00 +7°C° 0.7 mm 2 mps 708 mmHg 94%
22:00 +7°C° 0.7 mm 2 mps 709 mmHg 93%
23:00 +6°C° 0.5 mm 2 mps 709 mmHg 93%

6 December, Sunday

Time Temperature Precipitation Wind Pressure Humidity
00:00 +7°C° 0.5 mm 1 mps 709 mmHg 93%
01:00 +7°C° 0.5 mm 1 mps 709 mmHg 93%
02:00 +7°C° 0.3 mm 1 mps 709 mmHg 93%
03:00 +7°C° 0.3 mm 1 mps 709 mmHg 93%
04:00 +7°C° 0.3 mm 1 mps 709 mmHg 92%
05:00 +7°C° 0.1 mm 1 mps 709 mmHg 92%
06:00 +6°C° 0.1 mm 1 mps 709 mmHg 91%
07:00 +6°C° 0.1 mm 1 mps 710 mmHg 90%
08:00 +7°C° 0 mm 1 mps 710 mmHg 84%
09:00 +8°C° 0 mm 1 mps 710 mmHg 78%
10:00 +7°C° 0 mm 2 mps 711 mmHg 73%
11:00 +8°C° 0 mm 2 mps 711 mmHg 69%
12:00 +8°C° 0 mm 2 mps 711 mmHg 65%
13:00 +9°C° 0 mm 3 mps 711 mmHg 62%
14:00 +8°C° 0 mm 2 mps 711 mmHg 66%
15:00 +8°C° 0 mm 2 mps 711 mmHg 71%
16:00 +7°C° 0 mm 2 mps 711 mmHg 76%
17:00 +6°C° 0 mm 2 mps 712 mmHg 79%
18:00 +5°C° 0 mm 2 mps 712 mmHg 83%
19:00 +5°C° 0 mm 2 mps 712 mmHg 87%
20:00 +5°C° 0.1 mm 2 mps 713 mmHg 87%
21:00 +5°C° 0.1 mm 2 mps 713 mmHg 87%
22:00 +5°C° 0.1 mm 2 mps 714 mmHg 87%
23:00 +5°C° 0.3 mm 2 mps 714 mmHg 88%

7 December, Monday

Time Temperature Precipitation Wind Pressure Humidity
00:00 +4°C° 0.3 mm 2 mps 714 mmHg 89%
01:00 +4°C° 0.3 mm 2 mps 714 mmHg 90%
02:00 +4°C° 0.2 mm 2 mps 714 mmHg 91%
03:00 +4°C° 0.2 mm 2 mps 714 mmHg 92%
04:00 +4°C° 0.2 mm 2 mps 714 mmHg 93%
05:00 +4°C° 0.2 mm 2 mps 714 mmHg 94%
06:00 +4°C° 0.2 mm 2 mps 714 mmHg 94%
07:00 +4°C° 0.2 mm 2 mps 714 mmHg 95%
08:00 +5°C° 0.1 mm 2 mps 714 mmHg 91%
09:00 +5°C° 0.1 mm 3 mps 715 mmHg 87%
10:00 +7°C° 0.1 mm 3 mps 715 mmHg 84%
11:00 +7°C° 0.1 mm 4 mps 715 mmHg 81%
12:00 +7°C° 0.1 mm 4 mps 714 mmHg 78%
13:00 +8°C° 0.1 mm 5 mps 714 mmHg 74%
14:00 +7°C° 0.8 mm 5 mps 714 mmHg 79%
15:00 +7°C° 0.8 mm 4 mps 713 mmHg 83%
16:00 +6°C° 0.8 mm 4 mps 712 mmHg 88%
17:00 +6°C° 2 mm 4 mps 712 mmHg 90%
18:00 +5°C° 2 mm 4 mps 711 mmHg 91%
19:00 +5°C° 2 mm 5 mps 710 mmHg 93%
20:00 +5°C° 1.2 mm 4 mps 710 mmHg 93%
21:00 +5°C° 1.2 mm 4 mps 711 mmHg 92%
22:00 +5°C° 1.2 mm 4 mps 711 mmHg 92%
23:00 +5°C° 0.1 mm 5 mps 711 mmHg 91%
Show more